Orbital Elements at Epoch 2459200.5 (2020-Dec-17.0) TDB
Reference: JPL 23 (heliocentric ecliptic J2000)
Element | Value | Uncertainty (1-sigma) | Units |
e | .1451985562553717 | 3.4158e-08 | |
a | 2.660099474628665 | 1.4663e-08 | au |
q | 2.27385687141691 | 9.0212e-08 | au |
i | 9.684069136525654 | 5.1954e-06 | deg |
node | 160.5526330620228 | 2.6566e-05 | deg |
peri | 289.16214944953 | 3.7868e-05 | deg |
M | 114.9113304412375 | 2.4112e-05 | deg |
tp | 2458694.668821259265 (2019-Jul-30.16882126) | 0.00010582 | TDB |
period | 1584.693377471468 4.34 | 1.3103e-05 3.587e-08 | d yr |
n | .2271732848246106 | 1.8783e-09 | deg/d |
Q | 3.04634207784042 | 1.6792e-08 | au |
|
| | Orbit Determination Parameters
Additional Information
|